Tracking 19192 objects as of 20-Jun-2018
HD Live streaming from Space Station
objects crossing your sky now

THAICOM 2

Track THAICOM 2 now!
THAICOM 2 is classified as:


NORAD ID: 23314
Int'l Code: 1994-065B
Perigee: 35,984.9 km
Apogee: 35,989.3 km
Inclination: 6.2 °
Period: 1,446.0 minutes
Semi major axis: 42358 km
RCS: 5.566 m2 (large)
Launch date: October 8, 1994
Source: Thailand (THAI)
Launch site: FRENCH GUIANA (FRGUI)

12 C-band, 3 Ku-band; Southeast Asia, Korea, Japan, east coast of China.
aabbcc
Your satellite tracking list
Your tracking list is empty




NASA's NSSDC Master Catalog

Two Line Element Set (TLE):
1 23314U 94065B   18170.78323316  .00000096  00000-0  00000+0 0  9991
2 23314   6.2482  56.7009 0000524 175.5581  13.9391  0.99586094 86568
Source of the keplerian elements: AFSPC